sat.trackr.live / text

‹ back to catalog

STARLINK-1153

NORAD 45080 · 2020-006AN

PAYLOAD ACTIVE UNKNOWN

§ Identity

Operator
Country
US
Launch date
2020-01-29
Launch site
AFETR
Launch vehicle
Mass (kg)
RCS (m²)

Purposes: comms

External: N2YO · Heavens-Above · Gunter

§ Orbital elements

Epoch: 2026-05-25T00:50:05.709984Z

Period
93.75 min
Inclination
53.1587°
Eccentricity
0.0003809
Mean motion
15.36031161 rev/d
Perigee alt
455.3 km
Apogee alt
460.5 km
Semi-major
6,836.0 km
B*
1.1991e-3
RAAN
261.7843°
Arg perigee
279.4184°
Mean anomaly
80.6389°
Rev number
34,858

§ Raw data

STARLINK-11531 45080U 20006AN  26145.03478831  .00042545  00000+0  11991-2 0  99992 45080  53.1587 261.7843 0003809 279.4184  80.6389 15.36031161348583

JSON: /api/v1/satellites/45080 · /tle

For live sub-satellite position, see the globe view (requires WebGL).

§ Visibility from observer

Set your observer location to see the next 7 days of passes ≥ 10°. The values pass through the URL so the page stays shareable.

No JS? Fill the form by hand. The geolocation button needs JavaScript.